SCS-01 K (63991 NORAD) Tracking and Keplerian Element Data

This shows tracking and keplerian element data for the satellite.

Feedback or suggestion? Click here.




ElementValue
Catalog63991
NameSCS-01 K
Epoch Orbit3343
Epoch Day354.25504288
Epoch Year2025
RAAN65.9744
Inclination97.3855
Eccentricity0.0011285
Argument of Perigee219.0272
Mean Anonmoly141.0149
Mean Motion15.19476547
Decay Rate0.00011638
L11 63991U 25100K 25354.25504288 .00011638 00000+0 55042-3 0 9996
L22 63991 97.3855 65.9744 0011285 219.0272 141.0149 15.19476547 33434



Live tracking and technical data element details for SCS-01 K (NORAD 63991). SCS-01 K can be tracked NOW for your location showing map with azimuth and elevation plus other details from your city location.







IsCatalogInMostPopularTable: catalog: 63991, numindb: 6
Update: records affected: 1



GetName: 63991 SCS-01 K

Hit Count: updated at: Tue, 21 Apr 2026 19:37:43 GMT